| time (UTC) | temp F | wind direction | speed MPH | gust MPH | rain 1hr in | rain 24hr in | rain mn in | humidity % | barometer mb |
| 20260510104539 | 71 | 76 | 0.0 | 0.0 | 0.00 | 0.00 | 0.00 | 95 | 1014.8 |
| 20260510103043 | 71 | 76 | 0.0 | 0.0 | 0.00 | 0.00 | 0.00 | 94 | 1014.5 |
| 20260510101541 | 71 | 76 | 0.0 | 0.0 | 0.00 | 0.00 | 0.00 | 94 | 1014.2 |
| 20260510100047 | 71 | 76 | 0.0 | 0.0 | 0.00 | 0.00 | 0.00 | 94 | 1013.9 |
| 20260510094541 | 71 | 76 | 0.0 | 0.0 | 0.00 | 0.00 | 0.00 | 94 | 1014.1 |
| 20260510093038 | 71 | 76 | 0.0 | 0.0 | 0.00 | 0.00 | 0.00 | 94 | 1014.0 |
| 20260510091533 | 72 | 76 | 0.0 | 0.0 | 0.00 | 0.00 | 0.00 | 94 | 1013.6 |
| 20260510090032 | 72 | 76 | 0.0 | 0.0 | 0.00 | 0.00 | 0.00 | 94 | 1013.4 |
| 20260510084534 | 72 | 76 | 0.0 | 0.0 | 0.00 | 0.00 | 0.00 | 93 | 1013.4 |
| 20260510083031 | 72 | 76 | 0.0 | 0.0 | 0.00 | 0.00 | 0.00 | 93 | 1013.4 |
| 20260510081538 | 72 | 76 | 0.0 | 0.0 | 0.00 | 0.00 | 0.00 | 93 | 1013.4 |
| 20260510080048 | 72 | 76 | 0.0 | 0.0 | 0.00 | 0.00 | 0.00 | 93 | 1013.5 |
| 20260510074528 | 72 | 76 | 0.0 | 0.0 | 0.00 | 0.00 | 0.00 | 93 | 1013.4 |
| 20260510073038 | 73 | 76 | 0.0 | 0.0 | 0.00 | 0.00 | 0.00 | 93 | 1013.4 |
| 20260510071523 | 73 | 76 | 0.0 | 0.0 | 0.00 | 0.00 | 0.00 | 93 | 1013.7 |
| 20260510070022 | 73 | 76 | 0.0 | 0.0 | 0.00 | 0.00 | 0.00 | 93 | 1013.9 |
| 20260510064521 | 73 | 76 | 0.0 | 0.0 | 0.00 | 0.00 | 0.00 | 93 | 1014.0 |
| 20260510063020 | 73 | 76 | 0.0 | 0.0 | 0.00 | 0.00 | 0.00 | 92 | 1014.1 |
| 20260510061517 | 74 | 76 | 0.0 | 0.0 | 0.00 | 0.00 | 0.00 | 92 | 1014.3 |
| 20260510060031 | 74 | 76 | 0.0 | 0.0 | 0.00 | 0.00 | 0.00 | 92 | 1014.5 |
| 20260510054516 | 75 | 76 | 0.0 | 0.0 | 0.00 | 0.00 | 0.00 | 92 | 1014.8 |
| 20260510053010 | 75 | 76 | 0.0 | 0.0 | 0.00 | 0.00 | 0.00 | 91 | 1014.8 |
| 20260510051508 | 76 | 76 | 0.0 | 1.0 | 0.00 | 0.00 | 0.00 | 90 | 1014.9 |
| 20260510050005 | 76 | 76 | 0.0 | 0.0 | 0.00 | 0.00 | 0.00 | 87 | 1015.3 |
| 20260510044504 | 76 | 76 | 0.0 | 1.0 | 0.00 | 0.00 | 0.00 | 88 | 1015.1 |
| 20260510043003 | 75 | 77 | 0.0 | 0.0 | 0.00 | 0.00 | 0.00 | 88 | 1015.2 |
| 20260510041501 | 76 | 77 | 0.0 | 0.0 | 0.00 | 0.00 | 0.00 | 87 | 1015.2 |
| 20260510040110 | 76 | 77 | 0.0 | 0.0 | 0.00 | 0.00 | 0.00 | 87 | 1015.2 |
| 20260510034557 | 76 | 77 | 0.0 | 0.0 | 0.00 | 0.00 | 0.00 | 86 | 1015.1 |
| 20260510033104 | 76 | 77 | 0.0 | 1.0 | 0.00 | 0.00 | 0.00 | 86 | 1014.9 |
| 20260510031603 | 76 | 77 | 0.0 | 0.0 | 0.00 | 0.00 | 0.00 | 86 | 1015.0 |
| 20260510024557 | 77 | 78 | 0.0 | 0.0 | 0.00 | 0.00 | 0.00 | 85 | 1014.8 |
| 20260510023055 | 77 | 78 | 0.0 | 1.0 | 0.00 | 0.00 | 0.00 | 85 | 1014.7 |
| 20260510021645 | 77 | 74 | 0.0 | 1.0 | 0.00 | 0.00 | 0.00 | 85 | 1014.7 |
| 20260510020059 | 77 | 59 | 0.0 | 0.0 | 0.00 | 0.00 | 0.00 | 86 | 1014.7 |
| 20260510014559 | 77 | 59 | 0.0 | 1.0 | 0.00 | 0.00 | 0.00 | 84 | 1014.4 |
| 20260510013102 | 77 | 59 | 0.0 | 0.0 | 0.00 | 0.00 | 0.00 | 83 | 1014.2 |
| 20260510011554 | 78 | 59 | 0.0 | 2.0 | 0.00 | 0.00 | 0.00 | 80 | 1014.0 |
| 20260510010058 | 78 | 335 | 0.0 | 1.0 | 0.00 | 0.00 | 0.00 | 81 | 1013.8 |
| 20260510004552 | 79 | 323 | 0.0 | 0.0 | 0.00 | 0.00 | 0.00 | 80 | 1013.9 |
| 20260510003052 | 80 | 324 | 0.0 | 1.0 | 0.00 | 0.00 | 0.00 | 78 | 1013.6 |
| 20260510001551 | 80 | 42 | 0.0 | 2.0 | 0.00 | 0.00 | 0.00 | 75 | 1013.2 |
| 20260510000051 | 81 | 127 | 0.0 | 1.0 | 0.00 | 0.00 | 0.00 | 73 | 1013.1 |
| 20260509234550 | 82 | 240 | 0.0 | 1.0 | 0.00 | 0.00 | 0.00 | 70 | 1013.0 |
| 20260509233050 | 83 | 243 | 0.0 | 2.0 | 0.00 | 0.00 | 0.00 | 65 | 1012.8 |
| 20260509231551 | 84 | 228 | 0.0 | 4.0 | 0.00 | 0.00 | 0.00 | 62 | 1012.6 |
| 20260509230051 | 85 | 134 | 0.0 | 3.0 | 0.00 | 0.00 | 0.00 | 58 | 1012.6 |
| 20260509224548 | 86 | 212 | 0.0 | 3.0 | 0.00 | 0.00 | 0.00 | 55 | 1012.4 |
| 20260509223051 | 88 | 105 | 0.0 | 2.0 | 0.00 | 0.00 | 0.00 | 51 | 1012.3 |
| 20260509221548 | 90 | 281 | 0.0 | 2.0 | 0.00 | 0.00 | 0.00 | 52 | 1012.2 |
| 20260509220048 | 91 | 194 | 1.0 | 8.0 | 0.00 | 0.00 | 0.00 | 52 | 1012.1 |
| 20260509214546 | 91 | 296 | 2.0 | 7.0 | 0.00 | 0.00 | 0.00 | 50 | 1012.0 |
| 20260509213057 | 90 | 221 | 0.0 | 6.0 | 0.00 | 0.00 | 0.00 | 51 | 1011.9 |
| 20260509211544 | 91 | 235 | 2.0 | 8.0 | 0.00 | 0.00 | 0.00 | 47 | 1011.8 |
| 20260509210048 | 91 | 229 | 1.0 | 8.0 | 0.00 | 0.00 | 0.00 | 50 | 1011.7 |
| 20260509204541 | 91 | 327 | 2.0 | 7.0 | 0.00 | 0.00 | 0.00 | 48 | 1011.7 |
| 20260509203041 | 91 | 225 | 1.0 | 5.0 | 0.00 | 0.00 | 0.00 | 50 | 1011.7 |
| 20260509201540 | 91 | 252 | 1.0 | 6.0 | 0.00 | 0.00 | 0.00 | 48 | 1011.8 |
| 20260509200042 | 91 | 215 | 3.0 | 8.0 | 0.00 | 0.00 | 0.00 | 49 | 1012.0 |
| 20260509194551 | 90 | 177 | 2.0 | 8.0 | 0.00 | 0.00 | 0.00 | 52 | 1011.9 |
| 20260509193036 | 93 | 274 | 2.0 | 9.0 | 0.00 | 0.00 | 0.00 | 49 | 1012.1 |
| 20260509191534 | 92 | 62 | 1.0 | 8.0 | 0.00 | 0.00 | 0.00 | 49 | 1012.2 |
| 20260509190031 | 92 | 283 | 2.0 | 9.0 | 0.00 | 0.00 | 0.00 | 50 | 1012.4 |
| 20260509184534 | 92 | 260 | 3.0 | 7.0 | 0.00 | 0.00 | 0.00 | 48 | 1012.7 |
| 20260509183034 | 93 | 328 | 2.0 | 10.0 | 0.00 | 0.00 | 0.00 | 48 | 1013.0 |
| 20260509181530 | 94 | 181 | 1.0 | 6.0 | 0.00 | 0.00 | 0.00 | 47 | 1013.1 |
| 20260509180033 | 92 | 248 | 1.0 | 8.0 | 0.00 | 0.00 | 0.00 | 49 | 1013.1 |
| 20260509174528 | 93 | 154 | 1.0 | 6.0 | 0.00 | 0.00 | 0.00 | 48 | 1013.1 |
| 20260509173032 | 93 | 301 | 2.0 | 9.0 | 0.00 | 0.00 | 0.00 | 49 | 1013.1 |
| 20260509171534 | 94 | 299 | 1.0 | 4.0 | 0.00 | 0.00 | 0.00 | 48 | 1013.2 |
| 20260509170026 | 95 | 244 | 1.0 | 4.0 | 0.00 | 0.00 | 0.00 | 49 | 1013.2 |
| 20260509164523 | 94 | 232 | 0.0 | 6.0 | 0.00 | 0.00 | 0.00 | 51 | 1013.3 |
| 20260509163022 | 93 | 198 | 1.0 | 8.0 | 0.00 | 0.00 | 0.00 | 50 | 1013.3 |
| 20260509161521 | 93 | 260 | 1.0 | 8.0 | 0.00 | 0.00 | 0.00 | 49 | 1013.3 |
| 20260509160022 | 92 | 44 | 0.0 | 5.0 | 0.00 | 0.00 | 0.00 | 56 | 1013.3 |
| 20260509154515 | 92 | 52 | 1.0 | 5.0 | 0.00 | 0.00 | 0.00 | 57 | 1013.4 |
| 20260509153027 | 90 | 248 | 1.0 | 5.0 | 0.00 | 0.00 | 0.00 | 62 | 1013.5 |
| 20260509151512 | 90 | 261 | 1.0 | 3.0 | 0.00 | 0.00 | 0.00 | 66 | 1013.8 |
| 20260509150007 | 88 | 287 | 0.0 | 2.0 | 0.00 | 0.00 | 0.00 | 71 | 1014.1 |
| 20260509144505 | 85 | 247 | 0.0 | 2.0 | 0.00 | 0.00 | 0.00 | 75 | 1014.2 |
| 20260509143004 | 87 | 210 | 0.0 | 2.0 | 0.00 | 0.00 | 0.00 | 73 | 1014.2 |
| 20260509141607 | 83 | 51 | 0.0 | 3.0 | 0.00 | 0.00 | 0.00 | 79 | 1014.1 |
| 20260509140107 | 81 | 70 | 0.0 | 4.0 | 0.00 | 0.00 | 0.00 | 81 | 1014.0 |
| 20260509134554 | 79 | 65 | 0.0 | 1.0 | 0.00 | 0.00 | 0.00 | 87 | 1014.1 |
| 20260509133050 | 74 | 64 | 0.0 | 3.0 | 0.00 | 0.00 | 0.00 | 93 | 1014.2 |
| 20260509131550 | 73 | 78 | 1.0 | 3.0 | 0.00 | 0.00 | 0.00 | 94 | 1014.3 |
| 20260509130050 | 72 | 70 | 1.0 | 3.0 | 0.00 | 0.00 | 0.00 | 95 | 1014.3 |
| 20260509124552 | 72 | 75 | 1.0 | 3.0 | 0.00 | 0.00 | 0.00 | 94 | 1014.2 |
| 20260509123048 | 71 | 95 | 2.0 | 4.0 | 0.00 | 0.00 | 0.00 | 94 | 1014.3 |
| 20260509121550 | 72 | 79 | 1.0 | 5.0 | 0.00 | 0.00 | 0.00 | 93 | 1014.2 |
| 20260509120047 | 75 | 34 | 0.0 | 0.0 | 0.00 | 0.00 | 0.00 | 95 | 1014.1 |
| 20260509114546 | 74 | 33 | 0.0 | 0.0 | 0.00 | 0.00 | 0.00 | 96 | 1014.0 |
| 20260509113044 | 72 | 33 | 0.0 | 0.0 | 0.00 | 0.00 | 0.00 | 96 | 1013.7 |
| 20260509111543 | 70 | 34 | 0.0 | 0.0 | 0.00 | 0.00 | 0.00 | 96 | 1013.4 |
| 20260509110042 | 70 | 33 | 0.0 | 0.0 | 0.00 | 0.00 | 0.00 | 96 | 1013.1 |